| time (UTC) | temp C | wind direction | speed KPH | gust KPH | rain 1hr cm | rain 24hr cm | rain mn cm | humidity % | barometer mb |
| 20260509180000 | 12 | 285 | 3.2 | 8.0 | 0.20 | 0.23 | 0.23 | 77 | 1011.0 |
| 20260509174459 | 12 | 312 | 0.0 | 3.2 | 0.15 | 0.18 | 0.18 | 79 | 1011.0 |
| 20260509171458 | 12 | 336 | 1.6 | 6.4 | 0.08 | 0.08 | 0.08 | 84 | 1011.3 |
| 20260509170001 | 13 | 232 | 1.6 | 4.8 | 0.03 | 0.03 | 0.03 | 85 | 1011.5 |
| 20260509164459 | 13 | 283 | 3.2 | 9.7 | 0.03 | 0.03 | 0.03 | 85 | 1011.2 |
| 20260509162959 | 13 | 311 | 4.8 | 16.1 | 0.03 | 0.03 | 0.03 | 83 | 1011.5 |
| 20260509160001 | 13 | 303 | 3.2 | 6.4 | 0.00 | 0.00 | 0.00 | 85 | 1011.6 |
| 20260509154459 | 13 | 330 | 1.6 | 6.4 | 0.00 | 0.00 | 0.00 | 84 | 1011.6 |
| 20260509153000 | 13 | 147 | 1.6 | 4.8 | 0.00 | 0.00 | 0.00 | 85 | 1011.6 |
| 20260509151459 | 13 | 114 | 1.6 | 6.4 | 0.00 | 0.00 | 0.00 | 84 | 1011.6 |
| 20260509150001 | 12 | 224 | 0.0 | 1.6 | 0.00 | 0.00 | 0.00 | 85 | 1011.6 |
| 20260509142959 | 12 | 192 | 1.6 | 6.4 | 0.00 | 0.00 | 0.00 | 84 | 1011.6 |
| 20260509141459 | 12 | 129 | 3.2 | 4.8 | 0.00 | 0.00 | 0.00 | 84 | 1011.6 |
| 20260509140001 | 12 | 133 | 3.2 | 8.0 | 0.00 | 0.00 | 0.00 | 83 | 1011.5 |
| 20260509134500 | 12 | 71 | 3.2 | 6.4 | 0.00 | 0.00 | 0.00 | 82 | 1011.4 |
| 20260509132959 | 12 | 131 | 1.6 | 4.8 | 0.00 | 0.00 | 0.00 | 82 | 1011.3 |
| 20260509131458 | 11 | 127 | 3.2 | 6.4 | 0.00 | 0.00 | 0.00 | 82 | 1011.4 |
| 20260509130000 | 11 | 207 | 3.2 | 6.4 | 0.00 | 0.00 | 0.00 | 82 | 1011.6 |
| 20260509124459 | 11 | 123 | 4.8 | 8.0 | 0.00 | 0.00 | 0.00 | 81 | 1011.6 |
| 20260509122958 | 11 | 124 | 6.4 | 9.7 | 0.00 | 0.00 | 0.00 | 80 | 1011.7 |
| 20260509121458 | 11 | 119 | 3.2 | 6.4 | 0.00 | 0.00 | 0.00 | 81 | 1011.5 |
| 20260509115958 | 11 | 119 | 3.2 | 6.4 | 0.00 | 0.00 | 0.00 | 80 | 1011.6 |
| 20260509114458 | 11 | 120 | 3.2 | 6.4 | 0.00 | 0.00 | 0.00 | 80 | 1011.5 |
| 20260509112958 | 11 | 112 | 3.2 | 9.7 | 0.00 | 0.00 | 0.00 | 79 | 1011.6 |
| 20260509111458 | 11 | 110 | 4.8 | 9.7 | 0.00 | 0.00 | 0.00 | 79 | 1011.4 |
| 20260509105957 | 11 | 117 | 4.8 | 8.0 | 0.00 | 0.00 | 0.00 | 80 | 1011.6 |
| 20260509102959 | 11 | 328 | 1.6 | 4.8 | 0.00 | 0.00 | 0.00 | 79 | 1011.2 |
| 20260509101458 | 11 | 323 | 0.0 | 1.6 | 0.00 | 0.00 | 0.00 | 77 | 1011.3 |
| 20260509092957 | 11 | 11 | 1.6 | 3.2 | 0.00 | 0.00 | 0.00 | 74 | 1011.2 |
| 20260509090000 | 11 | 11 | 0.0 | 1.6 | 0.00 | 0.00 | 0.00 | 73 | 1011.3 |
| 20260509084458 | 11 | 11 | 1.6 | 3.2 | 0.00 | 0.00 | 0.00 | 74 | 1011.5 |
| 20260509081458 | 11 | 61 | 1.6 | 3.2 | 0.00 | 0.00 | 0.00 | 73 | 1011.6 |
| 20260509075958 | 11 | 61 | 1.6 | 3.2 | 0.00 | 0.00 | 0.00 | 73 | 1011.6 |
| 20260509074458 | 10 | 61 | 0.0 | 0.0 | 0.00 | 0.00 | 0.00 | 74 | 1011.8 |
| 20260509072957 | 11 | 61 | 0.0 | 3.2 | 0.00 | 0.00 | 0.00 | 73 | 1011.5 |
| 20260509065958 | 10 | 305 | 0.0 | 3.2 | 0.00 | 0.03 | 0.00 | 77 | 1011.6 |
| 20260509064457 | 10 | 305 | 0.0 | 0.0 | 0.00 | 0.03 | 0.00 | 78 | 1011.7 |
| 20260509062958 | 10 | 305 | 0.0 | 3.2 | 0.00 | 0.03 | 0.00 | 77 | 1011.8 |
| 20260509061457 | 11 | 305 | 0.0 | 4.8 | 0.00 | 0.03 | 0.00 | 75 | 1012.1 |
| 20260509060000 | 12 | 25 | 0.0 | 1.6 | 0.00 | 0.03 | 0.00 | 73 | 1011.9 |
| 20260509054457 | 12 | 25 | 1.6 | 3.2 | 0.00 | 0.03 | 0.00 | 68 | 1011.9 |
| 20260509052958 | 12 | 25 | 0.0 | 3.2 | 0.00 | 0.03 | 0.00 | 66 | 1011.9 |
| 20260509050001 | 11 | 25 | 0.0 | 0.0 | 0.00 | 0.03 | 0.00 | 70 | 1012.7 |
| 20260509044500 | 11 | 25 | 0.0 | 3.2 | 0.00 | 0.03 | 0.00 | 69 | 1012.7 |
| 20260509041500 | 12 | 25 | 0.0 | 1.6 | 0.00 | 0.03 | 0.00 | 69 | 1012.6 |
| 20260509040005 | 11 | 25 | 0.0 | 3.2 | 0.00 | 0.03 | 0.00 | 70 | 1012.6 |
| 20260509034502 | 11 | 25 | 0.0 | 3.2 | 0.00 | 0.03 | 0.03 | 71 | 1012.6 |
| 20260509033002 | 11 | 25 | 0.0 | 0.0 | 0.00 | 0.03 | 0.03 | 69 | 1012.6 |
| 20260509031501 | 11 | 25 | 0.0 | 0.0 | 0.00 | 0.03 | 0.03 | 71 | 1012.6 |
| 20260509030002 | 11 | 25 | 0.0 | 0.0 | 0.00 | 0.03 | 0.03 | 71 | 1012.6 |
| 20260509024501 | 11 | 25 | 0.0 | 0.0 | 0.00 | 0.03 | 0.03 | 74 | 1012.6 |
| 20260509023001 | 11 | 25 | 0.0 | 0.0 | 0.00 | 0.03 | 0.03 | 74 | 1012.6 |
| 20260509021500 | 12 | 25 | 0.0 | 0.0 | 0.00 | 0.03 | 0.03 | 71 | 1012.6 |
| 20260509015959 | 12 | 25 | 0.0 | 0.0 | 0.00 | 0.03 | 0.03 | 69 | 1012.4 |
| 20260509014500 | 12 | 25 | 0.0 | 0.0 | 0.00 | 0.03 | 0.03 | 69 | 1012.2 |
| 20260509011459 | 12 | 25 | 0.0 | 0.0 | 0.00 | 0.03 | 0.03 | 68 | 1011.9 |
| 20260509010003 | 12 | 25 | 0.0 | 0.0 | 0.00 | 0.03 | 0.03 | 67 | 1011.6 |
| 20260509004501 | 12 | 25 | 0.0 | 0.0 | 0.00 | 0.03 | 0.03 | 66 | 1011.2 |
| 20260509003001 | 12 | 25 | 0.0 | 0.0 | 0.00 | 0.03 | 0.03 | 68 | 1011.1 |
| 20260509001501 | 12 | 25 | 0.0 | 3.2 | 0.00 | 0.03 | 0.03 | 65 | 1010.9 |
| 20260509000001 | 13 | 25 | 1.6 | 4.8 | 0.00 | 0.03 | 0.03 | 63 | 1010.7 |
| 20260508234500 | 13 | 281 | 1.6 | 3.2 | 0.00 | 0.03 | 0.03 | 64 | 1010.6 |
| 20260508233001 | 13 | 270 | 0.0 | 6.4 | 0.00 | 0.03 | 0.03 | 60 | 1010.6 |
| 20260508230002 | 13 | 296 | 1.6 | 4.8 | 0.00 | 0.03 | 0.03 | 58 | 1010.7 |
| 20260508224502 | 14 | 308 | 3.2 | 9.7 | 0.00 | 0.03 | 0.03 | 56 | 1010.7 |
| 20260508221502 | 14 | 283 | 6.4 | 14.5 | 0.00 | 0.03 | 0.03 | 53 | 1010.6 |
| 20260508214500 | 14 | 328 | 4.8 | 16.1 | 0.00 | 0.03 | 0.03 | 54 | 1010.7 |
| 20260508213001 | 15 | 268 | 6.4 | 16.1 | 0.00 | 0.03 | 0.03 | 53 | 1010.8 |
| 20260508211459 | 15 | 297 | 6.4 | 14.5 | 0.00 | 0.03 | 0.03 | 52 | 1010.6 |
| 20260508210002 | 15 | 281 | 6.4 | 12.9 | 0.00 | 0.03 | 0.03 | 55 | 1010.7 |
| 20260508204500 | 15 | 308 | 8.0 | 14.5 | 0.00 | 0.03 | 0.03 | 54 | 1010.8 |
| 20260508201500 | 14 | 280 | 8.0 | 20.9 | 0.00 | 0.03 | 0.03 | 55 | 1011.1 |
| 20260508200001 | 13 | 274 | 8.0 | 16.1 | 0.00 | 0.03 | 0.03 | 57 | 1011.2 |
| 20260508194500 | 13 | 290 | 6.4 | 17.7 | 0.00 | 0.03 | 0.03 | 55 | 1011.5 |
| 20260508193000 | 13 | 306 | 6.4 | 24.1 | 0.00 | 0.03 | 0.03 | 57 | 1011.3 |
| 20260508191500 | 13 | 281 | 6.4 | 19.3 | 0.00 | 0.03 | 0.03 | 60 | 1011.3 |
| 20260508190002 | 13 | 263 | 8.0 | 16.1 | 0.00 | 0.03 | 0.03 | 56 | 1011.5 |
| 20260508183000 | 15 | 299 | 8.0 | 16.1 | 0.00 | 0.03 | 0.03 | 48 | 1011.2 |